EW1033 Weather Reports


Display with metric or nautical units.
time (UTC)temp
F
wind
direction
speed
MPH
gust
MPH
rain 1hr
in
rain 24hr
in
rain mn
in
humidity
%
barometer
mb
20210802083141 79 24 0.0 0.0 0.00 0.00 0.00 67 1011.4
20210802081557 79 24 0.0 0.0 0.00 0.00 0.00 67 1011.4
20210802080135 78 24 0.0 0.0 0.00 0.00 0.00 68 1011.4
20210802074655 79 24 0.0 0.0 0.00 0.00 0.00 64 1011.5
20210802073106 79 24 0.0 0.0 0.00 0.00 0.00 67 1011.4
20210802071612 80 24 0.0 0.0 0.00 0.00 0.00 63 1011.4
20210802070045 81 24 0.0 0.0 0.00 0.00 0.00 61 1011.4
20210802064624 80 24 0.0 0.0 0.00 0.00 0.00 63 1011.6
20210802063242 80 24 0.0 0.0 0.00 0.00 0.00 63 1011.7
20210802061628 81 24 0.0 0.0 0.00 0.00 0.00 61 1011.6
20210802060110 82 24 1.0 5.0 0.00 0.00 0.00 58 1011.4
20210802054546 83 13 2.0 3.0 0.00 0.00 0.00 60 1011.3
20210802053041 83 13 1.0 3.0 0.00 0.00 0.00 61 1011.3
20210802051552 82 298 0.0 0.0 0.00 0.00 0.00 62 1011.3
20210802050102 83 298 0.0 0.0 0.00 0.00 0.00 58 1011.3
20210802044546 84 298 0.0 0.0 0.00 0.00 0.00 58 1011.1
20210802043118 84 298 0.0 3.0 0.00 0.00 0.00 56 1011.0
20210802041718 84 292 0.0 0.0 0.00 0.00 0.00 56 1011.0
20210802040145 85 292 0.0 0.0 0.00 0.00 0.00 53 1010.9
20210802034619 87 292 0.0 0.0 0.00 0.00 0.00 49 1010.7
20210802033110 86 292 0.0 0.0 0.00 0.00 0.00 49 1010.4
20210802031606 87 292 0.0 0.0 0.00 0.00 0.00 48 1010.2
20210802030107 88 292 0.0 0.0 0.00 0.00 0.00 46 1010.2
20210802024552 89 292 0.0 0.0 0.00 0.00 0.00 44 1010.2
20210802023050 91 292 0.0 6.0 0.00 0.00 0.00 41 1009.9
20210802021625 92 292 3.0 8.0 0.00 0.00 0.00 38 1009.6
20210802020125 92 261 2.0 6.0 0.00 0.00 0.00 39 1009.5
20210802014554 93 288 4.0 10.0 0.00 0.00 0.00 37 1009.4
20210802013118 94 288 5.0 11.0 0.00 0.00 0.00 36 1009.3
20210802011604 95 283 4.0 10.0 0.00 0.00 0.00 36 1009.3
20210802010038 95 266 4.0 13.0 0.00 0.00 0.00 35 1009.2
20210802004626 96 282 5.0 11.0 0.00 0.00 0.00 35 1009.1
20210802003050 96 249 5.0 13.0 0.00 0.00 0.00 35 1009.2
20210802001646 97 286 3.0 14.0 0.00 0.00 0.00 34 1009.3
20210802000025 97 284 7.0 13.0 0.00 0.00 0.00 32 1009.3
20210801234625 97 253 5.0 13.0 0.00 0.00 0.00 33 1009.4
20210801233041 97 290 4.0 12.0 0.00 0.00 0.00 32 1009.6
20210801231514 98 282 6.0 14.0 0.00 0.00 0.00 34 1009.7
20210801230031 98 273 6.0 13.0 0.00 0.00 0.00 33 1009.8
20210801224514 98 240 8.0 13.0 0.00 0.00 0.00 33 1010.1
20210801223009 98 304 4.0 11.0 0.00 0.00 0.00 32 1010.1
20210801221534 98 263 4.0 12.0 0.00 0.00 0.00 31 1010.4
20210801220007 98 294 6.0 11.0 0.00 0.00 0.00 35 1010.5
20210801214506 97 278 6.0 10.0 0.00 0.00 0.00 35 1010.6
20210801213126 97 265 0.0 8.0 0.00 0.00 0.00 33 1010.8
20210801211700 97 298 2.0 11.0 0.00 0.00 0.00 34 1011.0
20210801210152 97 276 4.0 10.0 0.00 0.00 0.00 34 1011.1
20210801204811 97 266 3.0 10.0 0.00 0.00 0.00 33 1011.2
20210801203158 96 207 1.0 9.0 0.00 0.00 0.00 35 1011.3
20210801201615 97 308 1.0 12.0 0.00 0.00 0.00 35 1011.4
20210801200145 97 279 4.0 10.0 0.00 0.00 0.00 35 1011.8
20210801194709 96 227 7.0 11.0 0.00 0.00 0.00 35 1012.1
20210801193128 94 273 0.0 7.0 0.00 0.00 0.00 40 1012.2
20210801191617 94 325 1.0 10.0 0.00 0.00 0.00 38 1012.4
20210801190127 94 284 0.0 6.0 0.00 0.00 0.00 40 1012.6
20210801184546 93 293 1.0 10.0 0.00 0.00 0.00 42 1012.7
20210801183058 93 265 4.0 9.0 0.00 0.00 0.00 44 1012.8
20210801181546 92 281 0.0 5.0 0.00 0.00 0.00 45 1013.2
20210801180042 92 281 1.0 5.0 0.00 0.00 0.00 45 1013.3
20210801174617 91 288 0.0 4.0 0.00 0.00 0.00 46 1013.4
20210801173030 91 183 0.0 4.0 0.00 0.00 0.00 46 1013.6
20210801171642 90 298 1.0 6.0 0.00 0.00 0.00 48 1013.7
20210801170051 89 250 0.0 4.0 0.00 0.00 0.00 49 1013.8
20210801164520 89 251 0.0 5.0 0.00 0.00 0.00 52 1013.7
20210801163013 88 243 0.0 5.0 0.00 0.00 0.00 55 1013.7
20210801161506 87 34 0.0 3.0 0.00 0.00 0.00 56 1013.8
20210801160005 86 34 0.0 0.0 0.00 0.00 0.00 59 1013.9
20210801154734 85 35 0.0 0.0 0.00 0.00 0.00 61 1014.0
20210801153205 85 35 0.0 0.0 0.00 0.00 0.00 62 1014.0
20210801151822 83 35 0.0 1.0 0.00 0.00 0.00 66 1014.0
20210801150130 80 35 0.0 0.0 0.00 0.00 0.00 72 1014.0
20210801144644 80 35 0.0 0.0 0.00 0.00 0.00 71 1013.9
20210801143225 79 35 0.0 1.0 0.00 0.00 0.00 74 1013.8
20210801141620 78 35 0.0 1.0 0.00 0.00 0.00 77 1013.7
20210801140055 76 35 0.0 0.0 0.00 0.01 0.00 81 1013.7
20210801134641 76 35 0.0 0.0 0.00 0.01 0.00 82 1013.5
20210801133113 76 35 0.0 0.0 0.00 0.01 0.00 82 1013.4
20210801131558 76 35 0.0 0.0 0.00 0.01 0.00 80 1013.3
20210801130108 75 35 0.0 0.0 0.00 0.01 0.00 83 1013.1
20210801124556 75 35 0.0 2.0 0.00 0.01 0.00 82 1012.9
20210801123133 74 35 0.0 0.0 0.00 0.01 0.00 83 1012.8
20210801121533 75 35 0.0 0.0 0.00 0.01 0.00 82 1012.5
20210801120039 75 35 0.0 0.0 0.00 0.01 0.00 82 1012.5
20210801114638 76 35 0.0 0.0 0.00 0.01 0.00 81 1012.2
20210801113021 76 35 0.0 0.0 0.00 0.01 0.00 79 1012.3
20210801111526 76 35 0.0 2.0 0.00 0.01 0.00 79 1012.1
20210801110018 76 35 0.0 0.0 0.00 0.01 0.00 80 1012.1
20210801104519 76 35 0.0 2.0 0.00 0.01 0.00 79 1012.0
20210801103028 76 35 0.0 0.0 0.00 0.01 0.00 79 1012.0
20210801101520 76 35 0.0 0.0 0.00 0.01 0.00 80 1012.0
20210801100017 77 35 0.0 0.0 0.00 0.01 0.00 79 1012.1
20210801094516 77 35 0.0 0.0 0.00 0.01 0.00 79 1012.1
20210801093022 77 35 0.0 0.0 0.00 0.01 0.00 79 1012.1
20210801091520 77 35 0.0 0.0 0.00 0.01 0.00 78 1012.2
20210801090007 77 35 0.0 0.0 0.00 0.01 0.00 77 1012.2
20210801084513 78 35 0.0 0.0 0.00 0.01 0.00 77 1012.2